Flag for Mexico Weather past 2 weeks in Cancún, Quintana Roo, Mexico

Now
81 °F

Passing clouds.


Feels Like: 86 °F
Forecast: 78 / 88 °F
Wind: 12 mph from Southeast

Location: Cancun International Airport

Current Time: Apr 21, 2015 at 3:25:09 AM

Latest Report: Apr 21, 2015 at 12:45 AM


Visibility: 7 mi

Pressure: 29.88 "Hg

Humidity: 84%

Dew point: 75 °F

Location of CancúnLocation

Historic Weather in Cancún — Graph

°F

Cancún temperature yesterday

Maximum temperature yesterday: 88 °F (at 12:54 PM)
Minimum temperature yesterday: 79 °F (at 12:45 AM)
Average temperature yesterday: 82 °F

Past Weeks' High & Low Weather Summary

 TemperatureHumidityPressure
High88 °F (Apr 16, 11:47 AM)100% (Apr 11, 3:41 AM)30.09 "Hg (Apr 11, 3:41 AM)
Low70 °F (Apr 15, 6:45 AM)17% (Apr 9, 12:48 PM)29.82 "Hg (Apr 20, 3:45 PM)
Average81 °F77%29.98 "Hg
* Reported Apr 6 12:45 AM — Apr 21 12:45 AM, Cancún, Weather by CustomWeather, © 2015

Note: Actual official high and low records may vary slightly from our data, if they occured in-between our weather recording intervals... More about our weather records

Advertising

Cancún weather history for previous 24 hours

 ConditionsComfort  
Time TempWeatherWind HumidityBarometerVisibility
12:45 AM
Tue, Apr 21
81 °FPassing clouds.12 mph84%29.88 "Hg7 mi
11:46 PM
Mon, Apr 20
81 °FPassing clouds.10 mph89%29.90 "Hg7 mi
9:45 PM81 °FPassing clouds.10 mph84%29.87 "Hg7 mi
8:48 PM81 °FPassing clouds.9 mph84%29.88 "Hg7 mi
4:46 PM86 °FPassing clouds.17 mph70%29.83 "Hg7 mi
3:45 PM86 °FPassing clouds.18 mph62%29.82 "Hg7 mi
1:44 PM86 °FScattered clouds.25 mph62%29.85 "Hg7 mi
12:54 PM88 °FScattered clouds.20 mph59%29.85 "Hg7 mi
11:42 AM86 °FBroken clouds.23 mph62%29.88 "Hg7 mi
10:45 AM86 °FBroken clouds.18 mph66%29.89 "Hg7 mi
9:40 AM84 °FBroken clouds.23 mph66%29.87 "Hg7 mi
8:48 AM84 °FPartly sunny.20 mph66%29.87 "Hg7 mi
7:48 AM81 °FPartly sunny.22 mph79%29.86 "Hg7 mi
6:45 AM81 °FPassing clouds.17 mph74%29.86 "Hg7 mi
5:46 AM79 °FPassing clouds.15 mph84%29.83 "Hg7 mi
4:47 AM79 °FPassing clouds.14 mph79%29.83 "Hg7 mi
3:48 AM79 °FPassing clouds.14 mph84%29.83 "Hg7 mi
Weather by CustomWeather, © 2015

See weather overviewHow to use our weather pages